Terminal Aerodrome Forecast
Issued by NWS Binghamton, NY

Home | Current Version | Previous Version | Text Only | Print | Product List | Glossary On
Versions: 1 2 3 4 5 6 7 8 9 10 11 12 13 14 15 16
000
FTUS41 KBGM 310535
TAFSYR
TAF
KSYR 310535Z 3106/0106 09004KT P6SM OVC050
     FM310800 08005KT 3SM -SHRA BR OVC025
      TEMPO 3110/3114 2SM SHRA BR OVC015
     FM311600 03008KT P6SM SCT030 OVC040
     FM010300 02003KT P6SM BKN025 OVC035=

USA.gov is the U.S. government's official web portal to all federal, state and local government web resources and services.